Walla Walla, WA
on Wednesday, February 13, 2013

Wednesday
Previous Day Next Day
Daily Summary
 ActualAverage (KPDT)Record (KPDT)
Temperature
Mean Temperature °F 38°F  
Max Temperature 52°F 46°F 69°F (1921)
Min Temperature 39°F 30°F -21°F (1933)
Degree Days
Heating Degree Days 18 27  
Month to date heating degree days 358  
Since 1 July heating degree days 3516  
Cooling Degree Days 0 0  
Month to date cooling degree days 0  
Year to date cooling degree days 0  
Moisture
Dew Point 36°F   
Average Humidity 64    
Maximum Humidity 73    
Minimum Humidity 56    
Precipitation
Precipitation 0.00 in 0.04 in 0.49 in (1984)
Month to date precipitation 0.51  
Year to date precipitation 1.94  
Snow
Snow 0.00 in 0.20 in 3.00 in (1937)
Month to date snowfall 1.7  
Year to date snowfall 5.4  
Since 1 July snowfall 12.9  
Snow Depth in   
Wind
Wind Speed 15 mph   
Max Wind Speed 21 mph   
Max Gust Speed 28 mph   
Visibility 10 miles   
Events     

Key: T is trace of precipitation, MM is missing value
Source: NWS Daily Summary
Time(PST)TemperatureDew PointHumidity Pressure Visibility Wind DirectionWind SpeedGust SpeedPrecipitationEvents Conditions
12:53 AM 48.9°F 35.1°F 59% 30.30 in 10.0 miles SSW 19.6 mph - N/A   Mostly Cloudy
1:53 AM 48.0°F 35.1°F 61% 30.29 in 10.0 miles SSW 17.3 mph - N/A   Clear
2:53 AM 48.9°F 36.0°F 61% 30.29 in 10.0 miles SSW 15.0 mph - N/A   Clear
3:53 AM 48.0°F 36.0°F 63% 30.30 in 10.0 miles SSW 13.8 mph 23.0 mph N/A   Partly Cloudy
4:53 AM 48.0°F 36.0°F 63% 30.28 in 10.0 miles SSW 20.7 mph 27.6 mph N/A   Clear
5:53 AM 46.9°F 36.0°F 66% 30.29 in 10.0 miles SSW 15.0 mph - N/A   Clear
6:53 AM 46.9°F 37.0°F 68% 30.30 in 10.0 miles SW 10.4 mph - N/A   Clear
7:53 AM 48.0°F 37.0°F 66% 30.31 in 10.0 miles SSW 16.1 mph 21.9 mph N/A   Clear
8:53 AM 48.0°F 37.0°F 66% 30.32 in 10.0 miles SW 16.1 mph - N/A   Clear
9:53 AM 48.9°F 37.9°F 66% 30.33 in 10.0 miles SW 17.3 mph - N/A   Clear
10:53 AM 48.9°F 37.9°F 66% 30.34 in 10.0 miles SW 17.3 mph 24.2 mph N/A   Clear
11:53 AM 50.0°F 37.9°F 63% 30.32 in 10.0 miles SW 15.0 mph - N/A   Clear
12:53 PM 51.1°F 37.9°F 61% 30.30 in 9.0 miles SW 18.4 mph - N/A   Clear
1:53 PM 52.0°F 37.9°F 59% 30.29 in 8.0 miles WSW 17.3 mph - N/A   Clear
2:53 PM 52.0°F 37.0°F 57% 30.30 in 10.0 miles SW 12.7 mph - N/A   Scattered Clouds
3:53 PM 52.0°F 37.0°F 57% 30.31 in 10.0 miles SW 10.4 mph - N/A   Overcast
4:53 PM 51.1°F 36.0°F 56% 30.31 in 10.0 miles WSW 9.2 mph - N/A   Scattered Clouds
5:53 PM 46.9°F 34.0°F 61% 30.33 in 10.0 miles SW 8.1 mph - N/A   Partly Cloudy
6:53 PM 46.0°F 34.0°F 63% 30.34 in 10.0 miles South 4.6 mph - N/A   Mostly Cloudy
7:53 PM 43.0°F 33.1°F 68% 30.36 in 10.0 miles SSW 8.1 mph - N/A   Mostly Cloudy
8:53 PM 43.0°F 33.1°F 68% 30.38 in 10.0 miles South 12.7 mph - N/A   Partly Cloudy
9:53 PM 42.1°F 33.1°F 70% 30.40 in 10.0 miles South 9.2 mph - N/A   Overcast
10:53 PM 42.1°F 33.1°F 70% 30.41 in 10.0 miles South 12.7 mph - N/A   Overcast
11:53 PM 39.9°F 32.0°F 73% 30.43 in 10.0 miles South 12.7 mph - N/A   Partly Cloudy
Moon Phase
Feb. 13 Feb. 17 Feb. 25 Mar. 04 Mar. 11
Sunrise:06:58 AM (PST) Moon Rise:08:14 AM (PST)2/13
Sunset:05:16 PM (PST) Moon Set:09:42 PM (PST)2/13

Copyright © 2014 The Weather Underground, Inc.